Home   Weather   Ramat Gan   Past weeks

Flag for Israel Past Weather in Ramat Gan, Israel — Yesterday and Last 2 Weeks

Now
77 °F

Clear.


Feels Like: 79 °F
Forecast: 79 / 88 °F
Wind: 7 mph from Northeast

Location: Dov Airport

Current Time: Sep 25, 2016 at 1:39:11 AM

Latest Report: Sep 24, 2016 at 10:50 PM


Visibility: 10 mi

Pressure: 29.86 "Hg

Humidity: 57%

Dew Point: 61 °F

Location of Ramat GanLocation

Past Weather in Ramat Gan — Graph

°F

Ramat Gan Temperature Yesterday

Maximum temperature yesterday: 86 °F (at 2:50 PM)
Minimum temperature yesterday: 75 °F (at 6:50 AM)
Average temperature yesterday: 81 °F

High & Low Weather Summary for the Past Weeks

 TemperatureHumidityPressure
High88 °F (Sep 15, 1:50 PM)89% (Sep 21, 5:00 AM)29.98 "Hg (Sep 21, 5:00 AM)
Low73 °F (Sep 19, 5:00 AM)45% (Sep 24, 1:50 PM)29.80 "Hg (Sep 20, 3:50 PM)
Average82 °F66%29.88 "Hg
* Reported Sep 10 6:00 AM — Sep 24 10:50 PM, Ramat Gan, Weather by CustomWeather, © 2016

Note: Actual official high and low records may vary slightly from our data, if they occured in-between our weather recording intervals... More about our weather records

Advertising

Ramat Gan Weather History for the Previous 24 Hours

Scroll right to see more
 ConditionsComfort  
Time TempWeatherWind HumidityBarometerVisibility
10:50 PM
Sat, Sep 24
77 °FClear.7 mph57%29.86 "Hg10 mi
9:50 PM79 °FClear.8 mph54%29.86 "Hg10 mi
8:50 PM81 °FClear.12 mph51%29.86 "Hg10 mi
7:50 PM81 °FClear.16 mph54%29.86 "Hg10 mi
6:50 PM81 °FClear.16 mph54%29.86 "Hg10 mi
5:50 PM82 °FSunny.21 mph51%29.86 "Hg10 mi
4:50 PM84 °FSunny.22 mph48%29.86 "Hg10 mi
3:50 PM84 °FSunny.21 mph51%29.86 "Hg10 mi
2:50 PM86 °FSunny.20 mph46%29.86 "Hg10 mi
1:50 PM84 °FSunny.17 mph45%29.89 "Hg10 mi
12:50 PM84 °FPassing clouds.14 mph51%29.89 "HgN/A
11:50 AM82 °FPassing clouds.10 mph58%29.92 "HgN/A
10:50 AM82 °FScattered clouds.8 mph58%29.92 "HgN/A
9:50 AM81 °FScattered clouds.6 mph58%29.92 "HgN/A
8:50 AM81 °FPassing clouds.5 mph62%29.92 "HgN/A
7:50 AM77 °FPassing clouds.3 mph69%29.92 "HgN/A
6:50 AM75 °FPassing clouds.3 mph69%29.89 "HgN/A
Weather by CustomWeather, © 2016

See weather overviewHow to use our weather pages